Location: Northcutt
(34.7304°N, 84.4305°W)
Time: 10:16:41
(UTC+00:00)

A-11 Canister half - Pass Details

Date: 05 October 2022
Orbit: 1524 x 1685 km, 47.3° (Epoch: 30 November)

Event Time Altitude Azimuth Distance (km) Brightness Sun altitude
Rises 18:19:40 0° 208° (SSW) 4,693 12.2 48.4°
Reaches altitude 10° 18:22:53 10° 202° (SSW) 3,698 12.0 48.1°
Maximum altitude 18:31:34 45° 133° (SE) 1,971 10.4 47.4°
Drops below altitude 10° 18:40:12 10° 64° (ENE) 3,698 10.8 46.7°
Sets 18:43:25 0° 59° (ENE) 4,693 11.2 46.3°
